Location: Buena Vista Lake
(37.6001°N, 119.5170°W)
Time: 18:17:06
(UTC+00:00)

Meteor 1-16 Rocket - Pass Details

Date: 05 August 2024
Orbit: 789 x 906 km, 81.2° (Epoch: 11 September)

Event Time Altitude Azimuth Distance (km) Brightness Sun altitude
Rises 12:18:28 0° 186° (S) 3,507 7.1 -9.3°
Reaches altitude 10° 12:20:56 10° 186° (S) 2,562 6.4 -8.9°
Maximum altitude 12:26:47 88° 98° (E) 889 4.4 -7.9°
Drops below altitude 10° 12:32:32 10° 9° (N) 2,513 7.2 -6.8°
Sets 12:34:57 0° 10° (N) 3,436 7.9 -6.4°
